Simultaneous Nadir Overpasses (SNOs) Predictions

Prediction of SNOs between NOAA-20 and AQUA Satellite Orbit:

Table of predicted SNOs for the next 14.0 days since TLE Epoch: 1/15/2022
Index Date (NOAA-20) Time (NOAA-20) Lat,Lon (NOAA-20) SZA (NOAA-20 ) Date (AQUA) Time (AQUA) Lat,Lon (AQUA) SZA (AQUA ) Distance(km) Time Diff (sec)
1 01/15/2022 23:02:41 -76.32,-105.53 62.21 01/15/2022 23:03:30 -76.32,-105.54 62.25 0.29 49
2 01/15/2022 23:53:09 77.05, 64.59 116.91 01/15/2022 23:52:40 77.05, 64.67 116.91 2.16 29
3 01/18/2022 15:19:30 -76.78, 11.95 63.23 01/18/2022 15:19:49 -76.78, 11.90 63.23 1.30 19
4 01/18/2022 16:10:00 77.40,-178.13 115.99 01/18/2022 16:09:01 77.40,-178.09 116.03 1.04 59
5 01/21/2022 06:46:00 76.03, -42.36 117.17 01/21/2022 06:47:05 76.03, -42.32 117.10 1.15 65
6 01/21/2022 07:36:27 -76.87, 128.09 63.87 01/21/2022 07:36:15 -76.88, 128.17 63.88 2.30 12
7 01/23/2022 23:02:45 76.66, 75.71 115.83 01/23/2022 23:03:20 76.66, 75.63 115.82 2.10 35
8 01/23/2022 23:53:14 -77.40,-113.93 65.10 01/23/2022 23:52:32 -77.39,-113.99 65.05 1.49 42
9 01/26/2022 15:19:37 76.93,-167.48 114.89 01/26/2022 15:19:41 76.93,-167.51 114.89 0.77 4



Historial Predications of SNOs between NOAA-20 and AQUA
